contact:dominique.lefevre@mio.osupytheas.fr, maurice.libes@osupytheas.fr, didier.mallarino@osupytheas.fr
Project:EMSO http://www.emso-fr.org/EMSO-France
Depth: 2436.0 m
Title:EMSO Ligure Ouest : Data MII capteur AQUADOPP
Date,Latitude,Longitude,X_East,Y_North,Z_Up,Amplitude_X,Amplitude_Y,Amplitude_Z,Batterie,SoundSpeed,Heading,Pitch,Roll,Pressure,TIS,Speed,Direction
, degrees North, degrees East, m.s-1, m.s-1,m.s-1, 1, 1, 1, Volt, m.s-1, degree, degree, degree, dbar, degree_C, m.s-1, degree
2022-11-28T00:04:03,42.805,6.029,-0.002,-0.006,-0.039,103.0,102.0,101.0,13.4,1505.2,329.2,-0.7,1.8,2471.193,13.28,0.006,198.4
2022-11-28T00:07:03,42.805,6.029,-0.014,-0.002,-0.025,101.0,102.0,101.0,13.4,1505.2,326.4,-0.7,1.8,2471.202,13.28,0.014,261.9
2022-11-28T00:10:03,42.805,6.029,0.008,-0.014,-0.017,103.0,102.0,99.0,13.4,1505.2,333.7,-0.8,1.8,2471.165,13.29,0.016,150.3
2022-11-28T00:13:03,42.805,6.029,0.019,-0.034,-0.05,101.0,102.0,101.0,13.4,1505.2,329.3,-0.7,1.8,2471.169,13.29,0.038,150.8
2022-11-28T00:16:03,42.805,6.029,0.008,0.005,0.003,102.0,102.0,100.0,13.3,1505.2,322.3,-0.8,1.8,2471.161,13.29,0.009,58.0
2022-11-28T00:19:03,42.805,6.029,0.001,-0.01,-0.018,103.0,102.0,100.0,13.4,1505.2,330.7,-0.7,1.8,2471.151,13.29,0.01,174.3
2022-11-28T00:22:03,42.805,6.029,-0.018,-0.012,-0.008,103.0,101.0,100.0,13.4,1505.2,316.8,-0.8,1.8,2471.156,13.29,0.021,236.3
2022-11-28T00:25:03,42.805,6.029,0.013,0.003,-0.013,101.0,103.0,100.0,13.4,1505.2,326.6,-0.7,1.8,2471.197,13.29,0.013,77.0
2022-11-28T00:28:03,42.805,6.029,-0.018,0.011,0.006,100.0,102.0,102.0,13.3,1505.2,332.4,-0.8,1.8,2471.173,13.29,0.021,301.4
2022-11-28T00:31:03,42.805,6.029,-0.008,-0.014,-0.043,101.0,102.0,101.0,13.3,1505.2,326.7,-0.8,1.8,2471.135,13.29,0.016,209.7
2022-11-28T00:34:03,42.805,6.029,-0.004,-0.024,-0.014,100.0,103.0,103.0,13.4,1505.2,325.9,-0.8,1.8,2471.148,13.29,0.024,189.5
2022-11-28T00:37:03,42.805,6.029,0.014,-0.008,-0.023,101.0,102.0,101.0,13.3,1505.2,325.4,-0.8,1.8,2471.195,13.29,0.016,119.7
2022-11-28T00:40:03,42.805,6.029,0.018,-0.001,-0.032,102.0,102.0,101.0,13.4,1505.2,320.2,-0.7,1.8,2471.164,13.29,0.018,93.2
2022-11-28T00:43:03,42.805,6.029,0.016,-0.003,-0.014,101.0,102.0,101.0,13.4,1505.2,334.8,-0.8,1.8,2471.155,13.29,0.016,100.6
2022-11-28T00:46:03,42.805,6.029,0.004,-0.012,-0.029,101.0,101.0,102.0,13.4,1505.2,329.1,-0.8,1.8,2471.105,13.29,0.012,161.6
2022-11-28T00:49:03,42.805,6.029,-0.006,0.0,-0.028,102.0,102.0,101.0,13.4,1505.2,328.1,-0.8,1.8,2471.15,13.29,0.006,270.0
2022-11-28T00:52:03,42.805,6.029,-0.006,0.014,-0.021,103.0,102.0,101.0,13.4,1505.2,324.9,-0.8,1.8,2471.102,13.29,0.015,336.8
2022-11-28T00:55:03,42.805,6.029,0.0,0.008,-0.018,99.0,101.0,101.0,13.4,1505.2,321.9,-0.7,1.8,2471.132,13.29,0.008,0.0
2022-11-28T00:58:03,42.805,6.029,0.004,0.007,-0.011,101.0,103.0,100.0,13.4,1505.2,325.5,-0.8,1.8,2471.138,13.29,0.008,29.7
2022-11-28T01:04:03,42.805,6.029,-0.005,-0.002,-0.045,105.0,103.0,101.0,13.4,1505.2,324.9,-0.7,1.8,2471.178,13.29,0.005,248.2
2022-11-28T01:07:03,42.805,6.029,0.006,-0.007,-0.029,102.0,102.0,100.0,13.3,1505.2,322.3,-0.7,1.8,2471.176,13.29,0.009,139.4
2022-11-28T01:10:03,42.805,6.029,-0.017,0.016,-0.009,101.0,101.0,101.0,13.4,1505.2,324.7,-0.8,1.8,2471.151,13.29,0.023,313.3
2022-11-28T01:13:03,42.805,6.029,-0.013,-0.003,0.003,102.0,102.0,100.0,13.4,1505.2,320.8,-0.8,1.8,2471.178,13.29,0.013,257.0
2022-11-28T01:16:03,42.805,6.029,-0.005,0.0,-0.007,103.0,101.0,101.0,13.4,1505.2,327.2,-0.8,1.8,2471.143,13.29,0.005,270.0
2022-11-28T01:19:03,42.805,6.029,-0.003,0.0,-0.021,103.0,102.0,101.0,13.4,1505.2,325.2,-0.8,1.8,2471.12,13.29,0.003,270.0
2022-11-28T01:22:03,42.805,6.029,-0.003,0.0,-0.031,101.0,101.0,101.0,13.3,1505.2,330.2,-0.8,1.8,2471.142,13.29,0.003,270.0
2022-11-28T01:25:03,42.805,6.029,-0.009,-0.005,-0.002,101.0,101.0,101.0,13.4,1505.2,329.2,-0.7,1.8,2471.153,13.29,0.01,240.9
2022-11-28T01:28:03,42.805,6.029,0.013,-0.016,-0.048,101.0,103.0,101.0,13.4,1505.2,335.8,-0.7,1.8,2471.119,13.29,0.02,140.9
2022-11-28T01:31:03,42.805,6.029,-0.007,-0.004,-0.052,101.0,104.0,101.0,13.4,1505.2,328.7,-0.7,1.8,2471.153,13.29,0.008,240.3
2022-11-28T01:34:03,42.805,6.029,-0.014,0.002,-0.017,99.0,103.0,101.0,13.4,1505.2,332.8,-0.8,1.8,2471.169,13.29,0.014,278.1
2022-11-28T01:37:03,42.805,6.029,0.0,-0.004,-0.045,102.0,103.0,101.0,13.3,1505.2,326.6,-0.8,1.8,2471.183,13.29,0.004,180.0
2022-11-28T01:40:03,42.805,6.029,0.003,-0.01,-0.018,102.0,102.0,101.0,13.4,1505.2,323.7,-0.8,1.8,2471.125,13.29,0.01,163.3
2022-11-28T01:43:03,42.805,6.029,-0.005,0.014,-0.027,101.0,103.0,101.0,13.4,1505.2,322.3,-0.7,1.8,2471.091,13.29,0.014,340.4
2022-11-28T01:46:03,42.805,6.029,-0.007,-0.001,-0.031,102.0,102.0,101.0,13.3,1505.2,326.3,-0.7,1.8,2471.144,13.29,0.007,261.9
2022-11-28T01:49:03,42.805,6.029,-0.007,0.0,-0.041,102.0,102.0,101.0,13.4,1505.2,330.5,-0.8,1.8,2471.06,13.29,0.007,270.0
2022-11-28T01:52:03,42.805,6.029,-0.011,0.013,-0.011,102.0,101.0,101.0,13.4,1505.2,330.1,-0.8,1.8,2471.088,13.29,0.017,319.8
2022-11-28T01:55:03,42.805,6.029,0.007,0.009,0.019,101.0,102.0,101.0,13.4,1505.2,323.4,-0.8,1.9,2471.07,13.29,0.011,37.9
2022-11-28T01:58:03,42.805,6.029,-0.009,0.006,-0.01,101.0,101.0,100.0,13.4,1505.2,318.6,-0.7,1.8,2471.098,13.29,0.01,303.7
2022-11-28T02:04:03,42.805,6.029,0.02,0.006,-0.027,102.0,102.0,100.0,13.4,1505.2,326.9,-0.8,1.9,2471.135,13.29,0.02,73.3
2022-11-28T02:07:03,42.805,6.029,-0.004,0.026,-0.023,101.0,101.0,100.0,13.4,1505.2,331.0,-0.7,1.8,2471.15,13.29,0.026,351.3
2022-11-28T02:10:03,42.805,6.029,-0.004,-0.001,-0.033,101.0,102.0,101.0,13.3,1505.2,336.5,-0.8,1.8,2471.119,13.29,0.004,256.0
2022-11-28T02:13:03,42.805,6.029,-0.022,0.01,-0.027,114.0,102.0,100.0,13.4,1505.2,320.9,-0.7,1.8,2471.145,13.29,0.024,294.4
2022-11-28T02:16:03,42.805,6.029,-0.004,-0.008,-0.028,101.0,102.0,100.0,13.4,1505.2,326.3,-0.8,1.8,2471.171,13.3,0.008,206.6
2022-11-28T02:19:03,42.805,6.029,0.0,0.002,-0.011,101.0,103.0,99.0,13.4,1505.2,318.8,-0.8,1.8,2471.13,13.3,0.002,0.0
2022-11-28T02:22:03,42.805,6.029,0.012,0.015,-0.021,101.0,101.0,100.0,13.4,1505.2,329.7,-0.8,1.8,2471.054,13.3,0.019,38.7
2022-11-28T02:25:03,42.805,6.029,0.005,0.0,-0.023,101.0,101.0,101.0,13.4,1505.2,332.8,-0.8,1.8,2471.102,13.3,0.005,90.0
2022-11-28T02:28:03,42.805,6.029,-0.009,0.0,-0.037,99.0,103.0,100.0,13.4,1505.2,318.2,-0.8,1.8,2471.113,13.3,0.009,270.0
2022-11-28T02:31:03,42.805,6.029,0.006,0.017,0.015,100.0,103.0,101.0,13.4,1505.2,328.2,-0.8,1.8,2471.125,13.3,0.018,19.4
2022-11-28T02:34:03,42.805,6.029,-0.003,-0.006,-0.044,102.0,102.0,101.0,13.4,1505.2,324.6,-0.8,1.8,2471.102,13.3,0.006,206.6
2022-11-28T02:37:03,42.805,6.029,0.004,-0.016,-0.011,101.0,103.0,100.0,13.3,1505.2,325.8,-0.7,1.8,2471.083,13.3,0.016,166.0
2022-11-28T02:40:03,42.805,6.029,0.013,-0.005,-0.046,103.0,104.0,99.0,13.4,1505.2,331.6,-0.7,1.8,2471.099,13.3,0.013,111.0
2022-11-28T02:43:03,42.805,6.029,-0.003,0.017,-0.025,100.0,101.0,100.0,13.3,1505.2,322.9,-0.8,1.8,2471.065,13.3,0.017,350.0
2022-11-28T02:46:03,42.805,6.029,-0.005,0.001,-0.037,101.0,101.0,101.0,13.3,1505.2,331.3,-0.7,1.9,2471.117,13.3,0.005,281.3
2022-11-28T02:49:03,42.805,6.029,0.003,0.005,-0.015,100.0,101.0,101.0,13.4,1505.2,324.5,-0.8,1.8,2471.024,13.3,0.005,31.0
2022-11-28T02:52:03,42.805,6.029,0.007,-0.007,-0.016,102.0,102.0,100.0,13.4,1505.2,326.9,-0.8,1.8,2471.098,13.29,0.009,135.0
2022-11-28T02:55:03,42.805,6.029,0.0,0.008,-0.026,101.0,104.0,100.0,13.4,1505.2,318.6,-0.8,1.8,2471.07,13.29,0.008,0.0
2022-11-28T02:58:03,42.805,6.029,0.01,0.024,-0.028,103.0,101.0,99.0,13.4,1505.2,319.6,-0.8,1.8,2471.083,13.29,0.026,22.6
2022-11-28T03:04:03,42.805,6.029,0.01,0.001,-0.032,100.0,102.0,100.0,13.3,1505.2,321.8,-0.8,1.8,2471.129,13.29,0.01,84.3
2022-11-28T03:07:03,42.805,6.029,-0.008,0.005,-0.04,102.0,103.0,99.0,13.3,1505.2,319.8,-0.8,1.8,2471.129,13.29,0.009,302.0
2022-11-28T03:10:03,42.805,6.029,-0.001,0.016,0.003,98.0,102.0,101.0,13.4,1505.2,316.4,-0.8,1.8,2471.071,13.29,0.016,356.4
2022-11-28T03:13:03,42.805,6.029,0.003,0.007,-0.007,101.0,101.0,100.0,13.4,1505.2,317.7,-0.8,1.8,2471.121,13.29,0.007,23.2
2022-11-28T03:16:03,42.805,6.029,0.01,0.008,0.001,101.0,101.0,100.0,13.4,1505.2,328.4,-0.8,1.8,2471.105,13.29,0.012,51.3
2022-11-28T03:19:03,42.805,6.029,0.004,0.03,0.016,101.0,102.0,100.0,13.4,1505.2,330.4,-0.8,1.8,2471.075,13.29,0.03,7.6
2022-11-28T03:22:03,42.805,6.029,0.006,0.012,-0.023,100.0,101.0,102.0,13.4,1505.2,328.6,-0.8,1.8,2471.083,13.29,0.013,26.6
2022-11-28T03:25:03,42.805,6.029,0.004,0.009,-0.02,102.0,100.0,101.0,13.4,1505.2,330.6,-0.8,1.8,2471.075,13.3,0.009,24.0
2022-11-28T03:28:03,42.805,6.029,-0.011,0.01,-0.026,100.0,102.0,99.0,13.3,1505.2,324.7,-0.8,1.8,2471.082,13.3,0.014,312.3
2022-11-28T03:31:03,42.805,6.029,0.001,0.002,-0.022,101.0,102.0,100.0,13.4,1505.2,330.7,-0.8,1.8,2471.045,13.3,0.002,26.6
2022-11-28T03:34:03,42.805,6.029,0.0,0.022,-0.023,101.0,101.0,100.0,13.4,1505.2,326.8,-0.8,1.8,2471.098,13.3,0.022,0.0
2022-11-28T03:37:03,42.805,6.029,-0.006,0.023,0.009,100.0,102.0,100.0,13.4,1505.2,324.9,-0.8,1.8,2471.099,13.3,0.023,345.4
2022-11-28T03:40:03,42.805,6.029,-0.012,0.002,-0.04,101.0,101.0,100.0,13.4,1505.2,325.2,-0.7,1.8,2471.101,13.3,0.012,279.5
2022-11-28T03:43:03,42.805,6.029,0.021,0.01,0.002,101.0,102.0,100.0,13.4,1505.2,316.3,-0.7,1.8,2471.05,13.3,0.023,64.5
2022-11-28T03:46:03,42.805,6.029,-0.01,0.02,-0.023,100.0,101.0,102.0,13.4,1505.2,324.4,-0.7,1.8,2471.057,13.3,0.022,333.4
2022-11-28T03:49:03,42.805,6.029,0.001,-0.001,-0.04,101.0,102.0,100.0,13.3,1505.2,320.9,-0.7,1.8,2471.074,13.3,0.001,135.0
2022-11-28T03:52:03,42.805,6.029,0.01,0.018,-0.013,99.0,101.0,101.0,13.4,1505.2,328.6,-0.8,1.8,2471.087,13.3,0.02,29.1
2022-11-28T03:55:03,42.805,6.029,0.015,-0.004,-0.018,100.0,103.0,100.0,13.3,1505.2,318.9,-0.7,1.8,2471.107,13.3,0.015,104.9
2022-11-28T03:58:03,42.805,6.029,0.013,0.026,0.02,101.0,102.0,101.0,13.4,1505.2,334.4,-0.7,1.8,2471.069,13.29,0.029,26.6
2022-11-28T04:04:03,42.805,6.029,-0.013,0.027,-0.009,102.0,102.0,101.0,13.3,1505.2,333.4,-0.8,1.8,2471.11,13.29,0.029,334.3
2022-11-28T04:07:03,42.805,6.029,0.0,0.012,-0.032,102.0,102.0,100.0,13.4,1505.2,325.5,-0.8,1.8,2471.085,13.29,0.012,0.0
2022-11-28T04:10:03,42.805,6.029,0.003,0.015,-0.01,101.0,102.0,101.0,13.3,1505.2,335.8,-0.7,1.8,2471.108,13.29,0.015,11.3
2022-11-28T04:13:03,42.805,6.029,-0.01,0.008,-0.048,101.0,102.0,101.0,13.3,1505.2,329.4,-0.8,1.8,2471.084,13.29,0.012,308.7
2022-11-28T04:16:03,42.805,6.029,0.001,-0.001,-0.042,101.0,102.0,100.0,13.3,1505.2,317.3,-0.8,1.8,2471.081,13.29,0.001,135.0
2022-11-28T04:19:03,42.805,6.029,-0.013,0.012,-0.004,102.0,102.0,100.0,13.4,1505.2,322.9,-0.7,1.8,2471.076,13.29,0.017,312.7
2022-11-28T04:22:03,42.805,6.029,-0.013,0.036,-0.012,100.0,101.0,101.0,13.4,1505.2,316.8,-0.8,1.8,2471.084,13.29,0.038,340.1
2022-11-28T04:25:03,42.805,6.029,-0.005,0.005,-0.015,102.0,101.0,101.0,13.4,1505.2,337.0,-0.8,1.8,2471.024,13.29,0.007,315.0
2022-11-28T04:28:03,42.805,6.029,-0.014,0.032,-0.006,102.0,102.0,100.0,13.3,1505.2,329.9,-0.8,1.8,2471.037,13.29,0.034,336.4
2022-11-28T04:31:03,42.805,6.029,-0.006,0.045,0.013,101.0,104.0,100.0,13.4,1505.2,321.3,-0.8,1.8,2471.104,13.29,0.045,352.4
2022-11-28T04:34:03,42.805,6.029,0.008,0.008,-0.013,102.0,102.0,100.0,13.3,1505.2,323.1,-0.8,1.8,2471.057,13.29,0.011,45.0
2022-11-28T04:37:03,42.805,6.029,-0.014,-0.001,-0.04,102.0,101.0,101.0,13.3,1505.2,318.7,-0.8,1.8,2471.079,13.29,0.014,265.9
2022-11-28T04:40:03,42.805,6.029,-0.002,0.014,-0.046,101.0,103.0,101.0,13.3,1505.2,327.4,-0.8,1.8,2471.06,13.29,0.014,351.9
2022-11-28T04:43:03,42.805,6.029,-0.004,0.028,-0.022,101.0,103.0,101.0,13.4,1505.2,315.9,-0.8,1.8,2471.067,13.29,0.028,351.9
2022-11-28T04:46:03,42.805,6.029,0.01,-0.007,-0.057,102.0,103.0,100.0,13.4,1505.2,321.5,-0.7,1.8,2471.08,13.29,0.012,125.0
2022-11-28T04:49:03,42.805,6.029,-0.007,0.007,-0.026,103.0,102.0,100.0,13.4,1505.2,328.9,-0.8,1.8,2471.121,13.29,0.009,315.0
2022-11-28T04:52:03,42.805,6.029,0.007,0.025,-0.018,101.0,103.0,100.0,13.4,1505.2,326.3,-0.8,1.8,2471.054,13.29,0.025,15.6
2022-11-28T04:55:03,42.805,6.029,0.001,0.01,-0.003,102.0,103.0,100.0,13.4,1505.2,320.9,-0.8,1.8,2471.075,13.29,0.01,5.7
2022-11-28T04:58:03,42.805,6.029,-0.013,0.023,-0.004,100.0,101.0,102.0,13.4,1505.2,320.1,-0.7,1.8,2471.08,13.29,0.026,330.5
2022-11-28T05:04:03,42.805,6.029,0.006,0.006,0.006,101.0,102.0,100.0,13.4,1505.2,327.8,-0.7,1.8,2471.103,13.29,0.008,45.0
2022-11-28T05:07:03,42.805,6.029,0.017,0.01,0.016,102.0,102.0,101.0,13.4,1505.2,325.8,-0.8,1.8,2471.102,13.29,0.019,59.5
2022-11-28T05:10:03,42.805,6.029,-0.017,0.012,-0.017,102.0,103.0,100.0,13.4,1505.2,318.2,-0.7,1.8,2471.098,13.29,0.02,305.2
2022-11-28T05:13:02,42.805,6.029,0.001,0.01,0.002,99.0,103.0,101.0,13.3,1505.2,334.7,-0.8,1.8,2471.097,13.29,0.01,5.7
2022-11-28T05:16:03,42.805,6.029,0.024,0.005,-0.018,101.0,102.0,100.0,13.4,1505.2,329.0,-0.7,1.8,2471.103,13.29,0.024,78.2
2022-11-28T05:19:03,42.805,6.029,0.006,0.013,-0.028,101.0,101.0,101.0,13.4,1505.2,325.7,-0.8,1.8,2471.082,13.29,0.014,24.8
2022-11-28T05:22:03,42.805,6.029,0.001,0.013,0.014,101.0,102.0,101.0,13.3,1505.2,324.2,-0.8,1.8,2471.081,13.29,0.013,4.4
2022-11-28T05:25:03,42.805,6.029,-0.013,0.012,-0.025,101.0,102.0,100.0,13.3,1505.2,321.3,-0.7,1.8,2471.11,13.29,0.017,312.7
2022-11-28T05:28:03,42.805,6.029,0.007,0.008,-0.032,102.0,102.0,100.0,13.4,1505.2,322.6,-0.7,1.8,2471.078,13.29,0.01,41.2
2022-11-28T05:31:03,42.805,6.029,0.011,0.0,-0.042,102.0,103.0,100.0,13.4,1505.2,326.6,-0.8,1.8,2471.096,13.29,0.011,90.0
2022-11-28T05:34:03,42.805,6.029,0.033,0.011,0.017,102.0,102.0,100.0,13.3,1505.2,330.2,-0.7,1.8,2471.094,13.29,0.034,71.6
2022-11-28T05:37:03,42.805,6.029,-0.008,0.011,-0.022,102.0,102.0,100.0,13.3,1505.2,328.2,-0.8,1.8,2471.045,13.29,0.013,324.0
2022-11-28T05:40:03,42.805,6.029,0.005,0.016,0.018,101.0,102.0,101.0,13.4,1505.2,327.1,-0.8,1.8,2471.068,13.29,0.016,17.4
2022-11-28T05:43:03,42.805,6.029,0.016,0.011,0.005,102.0,102.0,100.0,13.3,1505.2,325.0,-0.8,1.8,2471.098,13.29,0.019,55.5
2022-11-28T05:46:03,42.805,6.029,0.013,0.005,-0.014,101.0,102.0,101.0,13.3,1505.2,328.4,-0.8,1.8,2471.081,13.29,0.013,69.0
2022-11-28T05:49:03,42.805,6.029,0.01,0.018,-0.017,101.0,102.0,102.0,13.4,1505.2,322.2,-0.8,1.8,2471.089,13.29,0.02,29.1
2022-11-28T05:52:02,42.805,6.029,0.001,0.012,-0.015,101.0,102.0,101.0,13.4,1505.2,316.8,-0.8,1.8,2471.081,13.29,0.012,4.8
2022-11-28T05:55:02,42.805,6.029,0.022,0.017,0.013,101.0,102.0,100.0,13.4,1505.2,321.8,-0.8,1.9,2471.101,13.29,0.027,52.3
2022-11-28T05:58:02,42.805,6.029,0.013,0.006,0.005,101.0,103.0,100.0,13.4,1505.2,320.8,-0.8,1.8,2471.077,13.29,0.014,65.2
2022-11-28T06:04:02,42.805,6.029,0.003,0.021,-0.022,103.0,102.0,101.0,13.3,1505.2,326.1,-0.7,1.8,2471.14,13.28,0.021,8.1
2022-11-28T06:07:02,42.805,6.029,0.027,0.013,-0.008,102.0,102.0,100.0,13.4,1505.2,322.1,-0.8,1.8,2471.15,13.29,0.029,64.3
2022-11-28T06:10:02,42.805,6.029,0.025,0.005,0.004,101.0,101.0,100.0,13.4,1505.2,336.9,-0.8,1.8,2471.116,13.29,0.025,78.7
2022-11-28T06:13:02,42.805,6.029,0.011,0.021,0.011,102.0,102.0,101.0,13.4,1505.2,319.4,-0.8,1.8,2471.133,13.29,0.023,27.6
2022-11-28T06:16:02,42.805,6.029,0.007,0.025,-0.005,101.0,102.0,100.0,13.4,1505.2,323.1,-0.8,1.8,2471.121,13.29,0.025,15.6
2022-11-28T06:19:02,42.805,6.029,0.0,0.006,-0.026,102.0,102.0,101.0,13.4,1505.2,325.2,-0.8,1.8,2471.128,13.29,0.006,0.0
2022-11-28T06:22:03,42.805,6.029,0.005,0.003,-0.005,102.0,102.0,100.0,13.4,1505.2,321.9,-0.8,1.8,2471.133,13.29,0.005,59.0
2022-11-28T06:25:02,42.805,6.029,0.015,0.005,-0.035,102.0,102.0,101.0,13.3,1505.2,319.5,-0.8,1.8,2471.116,13.29,0.015,71.6
2022-11-28T06:28:02,42.805,6.029,0.015,0.009,-0.023,102.0,101.0,101.0,13.3,1505.2,318.8,-0.8,1.8,2471.137,13.29,0.017,59.0
2022-11-28T06:31:02,42.805,6.029,0.025,0.015,0.002,101.0,102.0,101.0,13.4,1505.2,322.2,-0.7,1.8,2471.147,13.29,0.029,59.0
2022-11-28T06:34:02,42.805,6.029,0.019,0.009,-0.017,101.0,102.0,100.0,13.4,1505.2,334.4,-0.8,1.8,2471.133,13.29,0.021,64.7
2022-11-28T06:37:02,42.805,6.029,0.018,0.042,0.011,101.0,102.0,101.0,13.4,1505.2,326.5,-0.7,1.8,2471.134,13.29,0.045,23.2
2022-11-28T06:40:02,42.805,6.029,0.014,0.023,0.022,102.0,101.0,101.0,13.3,1505.2,321.7,-0.8,1.8,2471.115,13.29,0.026,31.3
2022-11-28T06:43:02,42.805,6.029,0.028,0.006,0.007,101.0,102.0,100.0,13.3,1505.2,328.0,-0.8,1.8,2471.161,13.29,0.028,77.9
2022-11-28T06:46:02,42.805,6.029,0.024,0.031,0.031,101.0,102.0,101.0,13.4,1505.2,323.7,-0.7,1.8,2471.15,13.29,0.039,37.7
2022-11-28T06:49:02,42.805,6.029,0.018,0.009,-0.021,101.0,102.0,100.0,13.4,1505.2,330.4,-0.8,1.8,2471.153,13.29,0.02,63.4
2022-11-28T06:52:02,42.805,6.029,0.026,0.004,-0.042,102.0,101.0,101.0,13.4,1505.2,330.9,-0.8,1.8,2471.153,13.29,0.026,81.3
2022-11-28T06:55:02,42.805,6.029,0.002,0.017,0.003,102.0,102.0,100.0,13.4,1505.2,325.2,-0.7,1.8,2471.188,13.29,0.017,6.7
2022-11-28T06:58:02,42.805,6.029,0.011,0.024,0.0,102.0,102.0,101.0,13.3,1505.2,317.3,-0.8,1.8,2471.171,13.29,0.026,24.6
2022-11-28T07:04:02,42.805,6.029,0.007,0.029,0.012,102.0,101.0,100.0,13.4,1505.2,329.7,-0.8,1.8,2471.173,13.28,0.029,13.6
2022-11-28T07:07:02,42.805,6.029,0.036,-0.017,-0.026,101.0,103.0,101.0,13.4,1505.2,332.4,-0.8,1.8,2471.224,13.28,0.039,115.3
2022-11-28T07:10:02,42.805,6.029,0.024,0.007,-0.008,101.0,102.0,101.0,13.4,1505.2,331.7,-0.7,1.8,2471.169,13.28,0.025,73.7
2022-11-28T07:13:03,42.805,6.029,0.028,0.006,-0.01,102.0,102.0,101.0,13.4,1505.2,323.6,-0.8,1.8,2471.206,13.29,0.028,77.9
2022-11-28T07:16:02,42.805,6.029,0.024,0.014,-0.028,102.0,100.0,102.0,13.4,1505.2,325.3,-0.7,1.8,2471.175,13.29,0.027,59.7
2022-11-28T07:19:02,42.805,6.029,0.032,0.0,-0.002,102.0,101.0,100.0,13.3,1505.2,330.5,-0.8,1.8,2471.211,13.29,0.032,90.0
2022-11-28T07:22:02,42.805,6.029,0.027,0.015,0.005,103.0,100.0,101.0,13.3,1505.2,321.4,-0.8,1.8,2471.168,13.29,0.03,60.9
2022-11-28T07:25:03,42.805,6.029,0.016,0.012,-0.035,102.0,101.0,101.0,13.3,1505.2,320.4,-0.8,1.8,2471.155,13.29,0.02,53.1
2022-11-28T07:28:02,42.805,6.029,0.035,0.003,0.012,103.0,100.0,100.0,13.3,1505.2,325.2,-0.7,1.8,2471.171,13.29,0.035,85.1
2022-11-28T07:31:03,42.805,6.029,0.012,0.001,-0.02,101.0,102.0,100.0,13.4,1505.2,324.3,-0.8,1.8,2471.225,13.29,0.012,85.2
2022-11-28T07:34:03,42.805,6.029,0.013,0.004,0.032,101.0,101.0,101.0,13.3,1505.2,332.8,-0.8,1.8,2471.204,13.29,0.013,72.9
2022-11-28T07:37:02,42.805,6.029,0.016,-0.004,-0.015,102.0,101.0,100.0,13.4,1505.2,323.4,-0.8,1.8,2471.204,13.29,0.016,104.0
2022-11-28T07:40:02,42.805,6.029,0.033,0.022,0.02,102.0,101.0,101.0,13.3,1505.2,326.9,-0.8,1.8,2471.17,13.29,0.039,56.3
2022-11-28T07:43:03,42.805,6.029,0.026,-0.003,-0.023,100.0,102.0,100.0,13.4,1505.2,334.5,-0.7,1.8,2471.237,13.29,0.026,96.6
2022-11-28T07:46:03,42.805,6.029,0.01,0.011,-0.012,101.0,102.0,101.0,13.4,1505.2,327.9,-0.7,1.8,2471.214,13.29,0.014,42.3
2022-11-28T07:49:03,42.805,6.029,0.015,0.009,-0.002,102.0,104.0,99.0,13.4,1505.2,320.8,-0.7,1.8,2471.175,13.29,0.017,59.0
2022-11-28T07:52:02,42.805,6.029,0.025,0.01,0.016,103.0,101.0,100.0,13.4,1505.2,322.0,-0.7,1.8,2471.201,13.29,0.026,68.2
2022-11-28T07:55:03,42.805,6.029,0.013,0.006,0.0,101.0,102.0,101.0,13.3,1505.2,318.7,-0.8,1.8,2471.226,13.29,0.014,65.2
2022-11-28T07:58:03,42.805,6.029,0.041,0.019,0.019,102.0,102.0,100.0,13.3,1505.2,334.8,-0.8,1.8,2471.238,13.29,0.045,65.1
2022-11-28T08:04:02,42.805,6.029,0.003,0.008,-0.018,102.0,102.0,100.0,13.4,1505.2,324.1,-0.7,1.8,2471.288,13.28,0.008,20.6
2022-11-28T08:07:02,42.805,6.029,0.011,0.009,0.006,102.0,101.0,100.0,13.4,1505.2,327.8,-0.8,1.8,2471.277,13.28,0.014,50.7
2022-11-28T08:10:03,42.805,6.029,0.042,-0.025,-0.034,102.0,101.0,101.0,13.3,1505.2,328.3,-0.8,1.8,2471.248,13.28,0.048,120.8
2022-11-28T08:13:03,42.805,6.029,0.029,0.022,-0.011,102.0,102.0,101.0,13.4,1505.2,333.1,-0.7,1.8,2471.25,13.28,0.036,52.8
2022-11-28T08:16:03,42.805,6.029,0.01,0.007,0.003,102.0,101.0,100.0,13.4,1505.2,322.8,-0.8,1.8,2471.222,13.29,0.012,55.0
2022-11-28T08:19:03,42.805,6.029,0.019,-0.005,-0.016,102.0,102.0,101.0,13.4,1505.2,320.2,-0.7,1.8,2471.287,13.29,0.019,104.7
2022-11-28T08:22:02,42.805,6.029,0.015,0.013,-0.008,102.0,102.0,101.0,13.4,1505.2,323.5,-0.8,1.8,2471.241,13.29,0.019,49.1
2022-11-28T08:25:03,42.805,6.029,0.035,-0.017,-0.031,102.0,102.0,101.0,13.4,1505.2,332.0,-0.8,1.8,2471.28,13.29,0.038,115.9
2022-11-28T08:28:02,42.805,6.029,0.026,0.004,-0.006,103.0,101.0,101.0,13.4,1505.2,324.7,-0.7,1.8,2471.255,13.29,0.026,81.3
2022-11-28T08:31:03,42.805,6.029,0.026,0.01,-0.001,103.0,101.0,101.0,13.4,1505.2,327.8,-0.7,1.8,2471.232,13.29,0.027,69.0
2022-11-28T08:34:03,42.805,6.029,0.025,0.003,-0.011,102.0,102.0,101.0,13.4,1505.2,325.0,-0.8,1.8,2471.236,13.29,0.025,83.2
2022-11-28T08:37:02,42.805,6.029,0.02,0.013,-0.035,102.0,103.0,101.0,13.4,1505.2,328.2,-0.8,1.8,2471.264,13.29,0.023,57.0
2022-11-28T08:40:03,42.805,6.029,0.016,0.015,-0.035,100.0,103.0,101.0,13.3,1505.2,328.9,-0.7,1.8,2471.272,13.29,0.021,46.9
2022-11-28T08:43:03,42.805,6.029,0.018,0.014,-0.027,100.0,103.0,102.0,13.4,1505.2,323.2,-0.7,1.8,2471.231,13.29,0.022,52.1
2022-11-28T08:46:03,42.805,6.029,0.026,0.021,0.003,101.0,103.0,101.0,13.4,1505.2,330.2,-0.8,1.8,2471.26,13.29,0.033,51.1
2022-11-28T08:49:03,42.805,6.029,0.029,0.001,-0.011,103.0,102.0,100.0,13.3,1505.2,321.6,-0.8,1.8,2471.254,13.29,0.029,88.0
2022-11-28T08:52:02,42.805,6.029,0.024,0.003,0.011,103.0,103.0,100.0,13.3,1505.2,322.9,-0.7,1.8,2471.287,13.29,0.024,82.9
2022-11-28T08:55:03,42.805,6.029,0.025,-0.002,-0.012,101.0,102.0,101.0,13.4,1505.2,323.9,-0.7,1.8,2471.25,13.29,0.025,94.6
2022-11-28T08:58:03,42.805,6.029,0.015,0.013,-0.013,101.0,102.0,100.0,13.4,1505.2,317.4,-0.8,1.8,2471.317,13.29,0.019,49.1
2022-11-28T09:04:02,42.805,6.029,0.025,0.006,0.012,103.0,101.0,102.0,13.4,1505.2,324.0,-0.8,1.8,2471.309,13.28,0.025,76.5
2022-11-28T09:07:02,42.805,6.029,0.03,0.005,-0.032,102.0,102.0,100.0,13.4,1505.2,317.8,-0.7,1.8,2471.317,13.28,0.03,80.5
2022-11-28T09:10:03,42.805,6.029,0.022,0.006,-0.015,102.0,102.0,101.0,13.4,1505.2,331.7,-0.8,1.8,2471.302,13.28,0.022,74.7
2022-11-28T09:13:03,42.805,6.029,0.03,0.0,0.012,103.0,102.0,101.0,13.4,1505.2,331.3,-0.8,1.8,2471.258,13.29,0.03,90.0
2022-11-28T09:16:03,42.805,6.029,0.036,-0.012,-0.012,102.0,104.0,100.0,13.4,1505.2,332.1,-0.7,1.8,2471.292,13.29,0.037,108.4
2022-11-28T09:19:03,42.805,6.029,0.018,0.018,-0.013,103.0,104.0,100.0,13.4,1505.2,321.6,-0.7,1.8,2471.339,13.29,0.025,45.0
2022-11-28T09:22:02,42.805,6.029,0.016,0.002,-0.034,100.0,102.0,100.0,13.3,1505.2,324.1,-0.7,1.8,2471.332,13.29,0.016,82.9
2022-11-28T09:25:03,42.805,6.029,0.017,0.017,0.009,103.0,102.0,100.0,13.4,1505.2,332.4,-0.7,1.8,2471.28,13.29,0.024,45.0
2022-11-28T09:28:03,42.805,6.029,0.041,0.008,-0.007,102.0,101.0,102.0,13.3,1505.2,322.2,-0.7,1.8,2471.274,13.29,0.041,79.0
2022-11-28T09:31:03,42.805,6.029,0.016,0.0,-0.015,102.0,102.0,101.0,13.4,1505.2,321.0,-0.8,1.8,2471.3,13.29,0.016,90.0
2022-11-28T09:34:03,42.805,6.029,0.031,0.002,-0.015,102.0,103.0,101.0,13.4,1505.2,320.1,-0.8,1.8,2471.248,13.29,0.031,86.3
2022-11-28T09:37:02,42.805,6.029,0.016,0.007,0.006,103.0,101.0,101.0,13.4,1505.2,329.1,-0.8,1.8,2471.301,13.29,0.017,66.4
2022-11-28T09:40:03,42.805,6.029,0.03,-0.006,-0.02,102.0,101.0,100.0,13.4,1505.2,329.0,-0.7,1.8,2471.257,13.29,0.03,101.3
2022-11-28T09:43:03,42.805,6.029,0.073,-0.012,-0.022,102.0,102.0,100.0,13.3,1505.2,324.6,-0.7,1.8,2471.289,13.29,0.073,99.3
2022-11-28T09:46:03,42.805,6.029,0.042,0.0,-0.012,101.0,102.0,101.0,13.4,1505.2,325.0,-0.8,1.8,2471.308,13.29,0.042,90.0
2022-11-28T09:49:03,42.805,6.029,0.031,-0.005,0.004,102.0,103.0,100.0,13.3,1505.2,329.9,-0.7,1.8,2471.273,13.29,0.031,99.2
2022-11-28T09:52:02,42.805,6.029,0.025,-0.001,-0.023,102.0,105.0,100.0,13.3,1505.2,321.2,-0.8,1.8,2471.291,13.29,0.025,92.3
2022-11-28T09:55:03,42.805,6.029,0.04,-0.01,-0.026,101.0,101.0,101.0,13.4,1505.2,329.8,-0.7,1.8,2471.288,13.29,0.041,104.0
2022-11-28T09:58:03,42.805,6.029,0.03,-0.006,-0.04,102.0,102.0,101.0,13.4,1505.2,321.1,-0.8,1.8,2471.301,13.29,0.03,101.3
2022-11-28T10:04:02,42.805,6.029,0.02,0.019,-0.018,102.0,103.0,101.0,13.4,1505.2,323.2,-0.8,1.8,2471.351,13.28,0.027,46.5